Location: Peterborough
(44.3091°N, 78.3197°W)
Time: 05:09:23
(UTC-05:00)

Vanguard 3 - Visible Passes

Search period start: 23 February 2024 00:00
Search period end: 04 March 2024 00:00
Orbit: 508 x 3239 km, 33.4° (Epoch: 22 February)

Date Brightness Start Highest point End Pass type
(mag) Time Alt. Az. Time Alt. Az. Time Alt. Az.
23 Feb 11.4 00:33:05 10° W 00:33:32 11° W 00:33:32 11° W visible
23 Feb 10.7 18:48:38 10° S 19:02:20 25° SE 19:12:24 16° ESE visible
23 Feb 10.0 20:58:17 10° SW 21:16:21 46° SSE 21:16:43 46° SSE visible
23 Feb 10.7 23:12:40 10° WSW 23:21:03 30° WSW 23:21:03 30° WSW visible
24 Feb 10.3 19:40:34 10° SSW 19:57:03 37° SSE 20:04:11 29° ESE visible
24 Feb 10.1 21:52:55 10° WSW 22:08:30 50° SSW 22:08:30 50° SSW visible
25 Feb 11.1 00:08:38 10° W 00:12:49 19° WSW 00:12:49 19° WSW visible
25 Feb 10.8 18:24:23 10° S 18:38:10 27° SE 18:51:36 12° E visible
25 Feb 10.0 20:34:08 10° SW 20:52:12 48° SSE 20:55:54 45° SE visible
25 Feb 10.4 22:48:20 10° WSW 23:00:13 41° SW 23:00:13 41° SW visible
26 Feb 10.4 19:16:32 10° SSW 19:32:50 39° SSE 19:43:15 24° ESE visible
26 Feb 9.9 21:28:46 10° WSW 21:47:33 56° S 21:47:33 56° S visible
26 Feb 10.8 23:44:14 10° W 23:51:52 28° WSW 23:51:52 28° WSW visible
27 Feb 10.7 18:00:24 10° S 18:13:59 29° SE 18:28:54 10° E visible
27 Feb 10.1 20:10:10 10° SW 20:27:58 50° SSE 20:34:50 39° ESE visible
27 Feb 10.1 22:24:06 10° WSW 22:39:08 51° SW 22:39:08 51° SW visible
28 Feb 11.2 00:40:31 10° W 00:43:26 16° W 00:43:26 16° W visible
28 Feb 10.4 18:52:43 10° SSW 19:08:34 41° SSE 19:22:04 18° E visible
28 Feb 9.9 21:04:46 10° WSW 21:23:29 57° S 21:26:22 54° SSE visible
28 Feb 10.5 23:19:55 10° W 23:30:40 37° WSW 23:30:40 37° WSW visible
29 Feb 10.2 19:46:23 10° SW 20:03:41 52° SSE 20:13:32 32° ESE visible
29 Feb 9.9 22:00:01 10° WSW 22:17:49 58° SSW 22:17:49 58° SSW visible
01 Mar 11.0 00:16:09 10° W 00:22:06 23° W 00:22:06 23° W visible
01 Mar 10.4 18:29:07 10° SW 18:44:18 43° SSE 19:00:38 13° E visible
01 Mar 10.0 20:40:56 10° WSW 20:59:13 58° S 21:04:56 47° SE visible
01 Mar 10.3 22:55:44 10° W 23:09:13 45° SW 23:09:13 45° SW visible
02 Mar 11.4 01:12:58 10° W 01:13:29 11° W 01:13:29 11° W visible
02 Mar 10.2 19:22:48 10° SW 19:39:24 53° SSE 19:52:00 25° ESE visible
02 Mar 9.9 21:36:06 10° WSW 21:54:53 59° S 21:56:17 58° S visible
02 Mar 10.8 23:51:52 10° W 00:00:34 29° WSW 00:00:34 29° WSW visible
03 Mar 10.4 18:05:42 10° SW 18:20:04 44° SSE 18:37:50 10° E visible
03 Mar 10.1 20:17:18 10° WSW 20:34:55 59° S 20:43:19 39° ESE visible
03 Mar 10.1 22:31:41 10° W 22:47:35 51° SW 22:47:35 51° SW visible
